Wind_Speed
2 3 3 6 4 2 6 6 10 15 16 6 12 6 12 13 7 7 23 17 21 19 16 13 13 12 12 13 13 14 13 12 14 14 14 16 16 17 17 18 19 19 19 18 19 18 16 17 16
6 3 3 2 4 5 7 9 13 11 13 19 8 10 6 11 9 17 18 22 20 19 17 14 12 11 12 12 12 11 12 12 12 13 14 13 16 16 17 18 19 19 18 18 17 18 17 16 15
5 2 3 1 2 3 8 9 13 14 18 13 6 9 6 5 17 12 23 22 20 17 16 13 12 11 11 11 11 10 10 10 12 12 14 15 16 16 16 17 17 17 16 14 14 14 14 15 14
4 3 3 1 4 5 6 8 16 20 16 3 14 11 7 5 13 16 22 21 19 17 15 13 12 12 11 10 9 8 9 11 11 12 13 15 15 16 16 16 16 15 14 13 13 12 12 12 13
1 1 1 2 5 7 10 9 15 17 13 10 3 9 12 7 15 23 20 19 18 17 14 12 12 11 11 11 9 9 10 10 11 11 14 14 15 16 15 15 16 15 15 15 16 15 15 13 13
1 2 1 3 3 6 10 6 13 11 13 11 14 18 10 12 24 21 19 18 16 15 14 12 11 11 12 11 10 9 10 10 10 11 13 14 15 15 15 15 15 15 17 17 15 14 14 13 12
3 1 1 1 7 6 7 3 6 10 13 9 15 15 10 17 20 21 19 16 15 13 12 11 11 9 11 11 10 10 11 9 11 12 13 13 14 14 14 14 14 14 14 15 14 13 12 13 11
2 2 4 5 6 3 3 3 1 9 7 10 13 8 14 20 20 20 19 16 14 13 12 10 10 9 10 10 10 10 11 11 11 13 13 13 13 13 14 14 13 13 13 13 12 12 11 12 12
2 4 2 2 12 6 4 6 4 1 12 5 4 13 27 24 22 21 20 16 14 12 11 11 11 10 9 11 10 12 12 13 12 13 14 13 12 12 12 12 12 11 11 11 11 11 11 11 13
5 2 3 5 6 11 8 6 10 9 10 11 17 25 28 26 23 21 20 18 15 14 11 10 11 10 9 11 10 12 10 10 10 12 11 12 11 11 12 10 10 10 9 8 7 7 9 9 8
3 3 3 1 8 13 8 7 5 10 10 15 23 26 25 25 22 20 18 16 15 13 11 11 10 10 10 10 10 10 10 10 10 12 11 11 12 10 10 10 8 7 7 5 6 6 6 8 9
6 3 10 7 14 10 6 5 9 3 5 15 21 26 25 21 20 20 18 16 15 13 11 11 10 10 10 11 10 10 11 11 11 12 12 11 11 11 10 9 8 6 5 5 7 9 7 6 8
4 3 10 12 18 13 8 9 3 6 11 20 24 23 22 19 19 18 16 15 14 13 13 11 10 10 10 9 11 11 12 12 13 11 10 10 11 11 11 9 8 6 5 6 6 9 10 9 8
4 7 16 16 12 5 7 3 4 9 19 23 22 20 19 18 18 17 16 15 14 13 13 12 11 11 11 10 11 10 11 12 11 11 11 11 11 10 10 9 7 6 5 5 5 5 6 7 7
9 8 12 18 11 5 9 2 7 12 20 22 21 19 17 17 17 16 17 16 14 13 13 13 12 12 11 10 11 10 11 11 11 10 11 11 9 8 7 7 6 5 5 5 5 5 5 6 6
11 9 7 14 13 9 9 11 6 13 19 21 19 18 16 15 16 14 15 15 15 14 14 13 13 13 12 11 11 11 11 10 10 12 11 9 8 7 5 6 5 4 4 5 6 6 6 6 7
10 8 11 11 18 13 14 11 6 5 14 19 18 18 15 14 15 14 15 15 16 14 15 14 14 14 13 11 10 10 9 9 10 11 10 7 6 6 6 6 5 3 3 4 4 6 4 7 6
12 9 14 13 11 17 15 10 14 10 15 19 19 18 16 15 15 16 16 15 16 15 14 13 15 14 13 11 9 9 9 9 9 10 9 7 6 6 5 6 4 3 3 4 5 5 5 4 4
7 7 10 12 12 14 10 10 16 17 14 20 19 18 17 16 17 17 15 16 16 15 15 14 13 14 14 12 11 9 10 8 8 9 7 7 7 6 4 6 5 3 4 4 3 3 5 6 4
9 10 13 12 16 8 11 9 16 17 18 22 21 19 17 17 17 17 16 16 17 16 15 16 14 13 12 10 9 8 8 9 8 8 7 8 7 7 5 4 6 3 5 3 5 5 3 6 7
7 9 13 13 13 9 12 6 10 15 19 21 21 20 19 16 16 16 17 18 17 17 16 16 16 14 12 10 10 9 9 7 8 8 8 8 8 7 7 5 3 4 2 5 3 4 5 6 5
11 1 6 13 15 6 16 3 8 18 18 16 21 20 20 19 17 18 21 20 19 18 16 15 15 14 14 11 12 10 8 7 6 8 8 9 9 8 8 7 6 5 3 4 2 3 4 5 5
5 6 8 12 4 10 10 3 7 20 17 16 17 22 21 21 19 17 22 22 20 18 18 17 15 14 13 13 9 8 7 7 5 8 8 9 8 9 9 8 7 6 6 4 2 1 2 3 4
2 9 6 4 3 7 11 9 12 17 26 26 22 19 21 20 20 19 20 19 19 19 18 17 16 15 14 12 11 8 7 5 4 7 7 7 9 9 10 9 9 9 7 5 3 3 2 1 3
13 14 7 8 7 4 4 8 4 19 14 23 26 25 22 21 20 19 17 18 21 21 19 18 16 16 15 12 11 10 8 6 8 8 8 9 9 9 10 10 9 9 8 6 4 3 4 3 1
18 18 8 10 10 9 6 6 3 6 12 14 20 19 21 21 19 19 19 21 17 21 20 18 17 16 14 12 11 11 8 6 7 10 4 10 11 9 9 11 10 9 9 8 6 5 7 6 4
16 19 17 15 6 10 10 6 6 7 11 14 20 24 18 19 18 17 21 21 20 23 22 20 17 16 15 14 11 10 10 9 8 6 7 7 7 10 10 11 11 10 9 8 8 9 8 7 6
14 14 13 9 10 12 8 10 6 10 11 16 19 24 19 14 17 17 19 18 19 21 19 18 17 15 14 14 12 11 10 9 9 8 7 6 8 10 10 11 11 11 9 8 8 9 10 9 9
11 13 14 14 14 8 10 8 7 9 8 16 19 20 22 25 20 15 18 20 19 20 19 18 15 15 15 14 15 13 11 10 9 8 6 7 9 10 11 11 11 11 10 10 9 8 8 9 10
21 17 17 11 12 12 9 5 5 5 9 9 13 13 17 17 18 17 18 20 20 20 20 21 14 11 12 12 16 15 12 11 11 10 7 6 7 10 7 9 10 11 12 12 11 10 9 10 10
Wind_Direction
181 206 263 245 253 228 119 88 107 118 127 116 114 121 76 18 4 72 136 134 138 136 134 125 122 112 105 103 98 96 91 89 88 87 95 97 96 96 94 94 97 99 90 90 89 86 88 79 79
175 204 270 242 262 151 108 111 126 125 119 131 108 127 120 76 74 124 127 139 139 136 134 127 128 118 107 103 100 94 93 88 84 84 84 94 99 98 96 97 97 98 96 94 90 88 84 81 78
173 227 287 343 307 103 114 110 126 118 132 127 107 58 30 78 128 122 136 140 139 136 130 131 127 124 120 115 109 108 97 97 86 77 82 98 101 101 102 101 102 99 95 92 91 85 79 78 78
206 213 202 301 140 85 105 137 136 132 131 63 124 95 85 131 120 132 140 140 137 135 131 128 126 117 116 116 110 111 106 94 95 85 91 93 102 105 107 103 98 92 87 85 87 87 79 85 77
312 291 126 44 86 122 75 110 140 144 134 127 139 105 109 119 127 135 140 143 140 134 130 128 125 125 111 113 109 105 112 102 97 93 92 93 103 108 107 101 97 87 86 90 85 87 85 81 82
19 263 65 155 157 127 98 46 147 140 128 115 111 118 95 139 139 141 143 141 139 133 129 127 126 117 114 110 107 114 108 101 102 97 96 99 99 108 109 101 93 83 85 84 87 82 79 78 84
270 355 144 163 155 159 107 25 183 137 152 124 138 114 117 157 143 144 148 142 139 134 121 129 124 122 112 116 113 106 109 106 101 99 100 103 103 107 110 105 98 90 89 83 76 74 76 73 80
216 270 197 215 193 142 96 100 238 165 91 119 134 144 149 147 149 146 147 149 142 135 131 126 130 122 118 106 104 110 112 110 107 103 106 106 104 109 108 107 102 96 92 85 79 74 81 76 73
230 234 258 166 168 140 142 128 119 166 151 152 122 146 139 150 147 146 148 147 143 144 140 135 132 124 123 120 114 108 110 113 110 103 105 105 114 111 102 121 107 102 96 87 81 71 75 77 64
241 286 5 342 145 143 142 104 129 142 134 133 119 120 142 147 153 151 154 152 155 144 151 139 138 131 128 113 120 114 115 118 118 116 112 104 110 108 113 116 113 109 99 81 72 67 65 70 73
148 9 80 315 161 134 130 120 148 161 153 154 145 143 149 152 159 155 155 154 148 152 145 148 137 134 127 124 122 117 122 121 115 116 116 108 109 114 113 112 113 106 86 81 55 38 61 68 69
160 71 39 109 134 120 159 127 90 255 90 152 153 148 152 158 164 158 156 155 151 155 151 146 145 137 128 130 121 120 122 127 129 126 124 115 116 117 116 115 115 103 79 59 51 50 52 83 86
237 142 73 149 145 146 165 92 69 108 135 141 147 152 153 160 162 156 153 154 158 160 157 155 150 141 133 132 123 115 122 126 128 129 125 121 121 120 119 115 113 93 83 79 61 60 66 79 88
148 145 119 147 134 123 124 86 348 122 140 141 153 157 157 158 163 159 158 157 164 165 160 158 154 145 142 136 131 122 121 125 128 129 127 122 122 119 119 118 111 95 82 62 54 59 73 72 86
144 152 129 149 149 123 134 152 87 145 149 151 159 159 157 160 164 170 164 161 166 171 160 159 155 151 147 140 131 126 128 128 131 132 130 125 119 119 119 118 122 105 92 62 71 81 93 94 93
183 172 181 153 153 163 206 166 120 164 159 160 161 159 157 161 166 171 164 161 164 164 159 160 156 153 148 146 140 132 128 133 132 135 135 128 124 122 129 134 127 129 99 76 73 83 93 91 93
197 184 151 138 186 158 200 138 174 160 185 167 169 165 164 166 167 171 164 162 163 163 163 160 154 155 151 154 144 139 135 138 140 144 142 136 128 125 139 138 139 142 118 74 75 80 70 99 99
188 213 165 151 161 167 195 143 165 193 218 171 174 166 169 171 175 171 170 161 164 167 169 169 162 159 155 158 148 147 147 144 149 152 149 143 140 132 140 143 146 161 144 109 77 47 69 66 58
298 231 153 139 153 150 131 138 173 180 208 185 180 169 175 176 172 169 176 173 168 170 178 178 171 169 168 169 165 161 163 158 161 166 168 163 154 152 134 151 148 156 131 71 65 86 65 67 45
223 216 115 125 151 157 175 175 169 171 192 197 186 180 187 182 170 171 180 182 183 177 182 189 184 182 178 175 169 171 165 166 164 163 167 177 174 172 164 160 159 162 138 99 61 42 84 80 41
216 207 159 153 167 182 176 137 163 175 199 200 190 193 195 187 175 180 188 187 191 185 185 191 194 189 191 186 168 160 165 166 180 182 183 187 185 184 180 175 171 174 197 146 86 68 13 88 62
174 233 151 148 178 180 203 122 187 172 183 193 190 193 194 188 186 182 191 194 193 191 190 187 190 194 191 191 183 168 176 182 195 188 188 189 193 192 190 179 179 199 202 157 142 81 59 335 73
75 171 173 178 222 147 183 149 159 166 187 190 206 196 195 192 184 190 190 191 192 190 189 185 186 190 187 195 191 190 196 181 183 190 174 183 187 193 191 188 188 197 198 169 156 137 62 69 27
191 169 168 172 254 230 171 256 163 182 198 195 190 202 202 199 188 192 199 179 193 188 189 184 184 188 188 190 191 198 187 181 182 174 175 183 181 188 193 194 192 193 195 188 192 199 189 71 95
208 180 176 199 202 250 136 212 67 194 178 192 189 192 203 197 192 191 189 182 193 189 188 184 186 191 190 196 197 202 207 209 211 198 186 189 187 191 188 197 196 189 191 192 196 206 210 205 218
211 211 213 206 210 211 130 220 149 183 194 190 198 182 203 194 194 193 187 197 177 190 187 186 186 192 195 200 204 205 207 203 206 214 203 200 186 191 188 188 188 190 196 198 206 214 215 210 216
193 225 237 274 254 258 162 179 150 186 206 199 181 170 205 204 194 193 201 193 187 191 186 185 184 191 199 203 205 206 210 205 215 220 202 211 194 190 189 194 198 200 203 209 213 216 213 217 220
236 198 211 241 217 231 163 224 107 181 176 177 174 180 176 202 208 195 198 193 180 189 185 184 182 186 196 207 212 212 214 215 211 213 211 215 204 203 189 195 200 205 205 207 212 213 213 216 226
195 224 221 245 238 257 229 195 72 137 182 173 176 179 180 196 199 193 192 180 185 172 170 176 176 181 196 209 207 216 214 210 211 230 212 193 187 186 192 200 200 201 205 210 212 220 212 216 226
203 214 203 228 191 256 309 82 108 141 152 182 160 178 184 185 191 177 169 171 174 178 171 167 173 177 191 199 208 212 215 215 214 219 210 196 172 197 209 194 202 208 207 208 210 218 226 226 235
Height
790 790 789 785 794 789 792 791 776 783 785 779 780 783 794 797 799 820 819 824 829 833 837 839 839 840 840 842 843 844 845 845 846 846 847 847 848 849 850 850 851 851 852 853 853 853 855 854 855
790 790 789 782 797 802 797 775 786 777 779 778 785 788 790 809 808 813 821 826 830 833 837 840 842 843 843 844 845 846 847 847 848 849 850 851 852 851 853 853 854 855 856 857 857 857 857 858 858
790 790 787 791 804 804 796 775 778 778 781 784 793 787 797 815 814 816 823 827 831 835 838 842 844 845 845 846 847 848 849 850 850 851 852 852 854 855 856 856 857 858 859 860 859 860 860 861 862
789 785 782 802 799 799 787 776 773 781 784 787 790 806 813 814 816 820 826 830 833 838 841 845 846 847 847 848 849 850 852 853 853 854 855 857 857 858 859 859 860 861 862 862 862 863 863 864 864
790 792 806 805 799 791 781 774 774 784 786 793 790 807 817 818 821 825 829 832 835 837 843 846 847 849 850 850 851 852 853 855 856 856 858 861 859 861 862 862 864 864 865 865 866 866 867 867 867
796 794 811 817 804 792 788 784 779 782 787 797 802 806 817 821 822 827 830 833 836 839 842 847 848 850 851 852 853 854 855 856 857 859 860 861 863 864 865 865 867 867 868 868 869 869 869 869 869
792 801 800 810 803 799 796 792 787 788 791 795 794 809 821 821 825 828 831 835 838 842 844 848 850 852 853 854 854 856 857 858 859 860 862 863 865 866 867 868 870 870 870 870 871 871 871 871 872
786 790 800 802 809 809 801 795 787 787 798 794 793 813 824 821 826 829 833 837 840 844 847 849 851 853 854 856 857 858 859 860 862 863 865 866 867 868 869 870 872 873 873 873 873 873 873 874 873
780 793 795 801 802 807 800 796 792 793 798 794 797 799 814 822 826 830 834 837 843 845 847 850 852 854 856 857 859 860 861 862 864 866 867 868 870 871 872 873 874 875 875 875 875 875 875 874 874
782 790 792 786 795 802 802 797 795 798 801 802 801 810 819 824 827 830 834 838 842 845 847 850 851 855 857 858 860 862 864 865 867 868 870 871 872 873 875 877 877 877 877 877 877 877 876 875 876
778 789 782 787 789 798 802 799 792 797 805 801 806 811 819 823 828 830 834 838 842 846 847 850 854 856 857 860 862 864 865 867 869 871 871 873 875 876 877 879 880 880 880 880 879 878 877 878 877
784 778 782 793 795 801 809 800 804 797 795 796 805 811 817 823 826 829 834 839 844 847 849 852 855 858 859 861 862 864 866 868 870 872 874 875 876 878 879 880 882 882 882 881 880 879 879 879 880
774 780 781 792 794 803 804 805 808 801 797 799 809 815 817 821 826 830 835 840 845 848 850 853 856 858 860 861 863 865 867 868 871 873 875 876 877 879 880 882 883 883 882 881 881 881 881 881 881
770 775 784 795 807 810 812 815 808 803 800 805 812 815 818 821 826 831 835 840 845 848 850 853 856 859 860 862 864 867 868 871 872 874 876 878 879 881 882 883 883 884 883 883 882 883 882 882 882
770 784 784 801 808 816 815 825 819 805 805 809 812 814 818 822 828 832 836 840 844 848 851 854 856 859 861 863 865 867 869 871 873 875 878 879 881 882 883 884 884 885 885 885 885 884 884 883 882
774 778 789 802 812 814 816 827 817 807 807 811 813 815 819 823 828 832 836 840 844 847 852 854 855 859 862 864 866 868 870 872 875 877 879 881 882 883 884 885 886 887 887 886 886 884 884 883 883
771 777 791 808 804 807 817 823 822 819 814 811 812 814 818 823 828 832 836 840 844 848 852 854 856 859 862 865 868 870 872 873 875 877 879 882 883 884 885 885 887 888 888 887 886 886 884 885 884
773 770 773 799 803 801 803 814 823 824 818 810 810 813 817 821 825 831 835 839 844 848 853 856 856 860 863 865 868 870 873 874 876 878 880 882 884 885 886 887 888 888 888 887 888 887 887 885 885
757 760 769 782 796 805 806 817 818 823 823 809 810 811 813 817 823 830 834 838 843 847 852 856 858 861 862 865 866 869 870 874 876 878 881 882 884 885 886 887 888 888 887 889 889 887 887 885 885
763 764 772 786 790 800 810 804 802 819 818 803 807 809 811 813 820 827 833 837 840 846 851 855 858 861 863 865 866 868 870 873 875 877 880 881 883 885 887 888 889 889 889 890 890 889 886 886 886
761 762 770 777 787 782 796 814 810 819 817 800 801 804 809 812 815 824 830 834 839 844 850 854 857 860 863 865 867 869 872 873 875 877 879 881 883 884 886 888 889 890 889 889 891 890 888 885 887
770 762 765 776 782 802 779 831 807 817 815 806 800 801 802 806 811 818 826 831 836 841 847 853 857 860 863 865 866 869 872 873 873 875 877 880 882 884 886 888 889 890 889 891 891 891 890 887 886
766 762 765 769 772 782 790 809 812 809 820 818 803 799 797 800 805 812 819 825 832 839 844 850 855 859 861 865 867 869 870 871 872 874 877 879 881 883 885 887 888 890 890 891 892 892 892 890 888
764 767 769 773 770 793 771 775 805 803 793 796 803 802 795 796 801 808 815 822 831 837 842 848 853 857 861 864 868 869 870 871 873 874 876 878 880 882 884 886 888 890 890 891 892 892 893 892 891
767 773 796 801 798 786 768 782 768 768 774 779 787 795 794 795 798 805 811 822 826 833 840 845 851 856 859 863 866 869 871 873 873 874 875 877 878 880 882 885 886 887 888 890 891 892 893 893 892
773 769 785 811 790 774 775 788 775 761 758 768 779 790 790 792 796 801 809 819 826 831 838 843 848 854 858 861 864 867 871 872 873 873 873 873 876 878 880 882 885 886 887 888 890 891 892 892 893
770 776 755 773 753 767 762 765 776 768 768 767 773 786 798 791 795 801 808 814 822 830 835 841 846 851 855 859 863 865 868 871 873 873 873 873 875 876 878 881 883 884 886 888 888 889 890 891 892
754 754 779 768 787 796 768 770 762 777 768 767 771 779 794 797 797 800 806 812 820 829 834 839 843 848 853 857 862 864 866 868 871 871 872 871 872 875 876 878 880 882 884 885 886 887 889 890 891
769 768 761 753 759 772 775 767 748 767 766 764 767 776 785 794 796 800 805 813 820 827 833 837 841 846 849 854 858 862 864 865 867 868 869 869 870 872 875 877 879 880 882 884 886 886 886 888 889
745 755 758 773 779 764 761 770 759 759 766 763 767 774 778 784 790 799 807 814 822 828 832 834 840 844 847 850 855 858 862 863 864 866 867 866 867 869 872 874 876 877 879 881 883 884 884 886 888